Wind_Speed
12 11 11 11 10 9 10 11 11 15 17 15 14 13 13 11 11 11 10 11 11 9 10 12 11 12 13 13 15 17 18 19 21 21 21 20 19 18 16 16 16 16 14 13 12 11 9 5 3
11 12 11 11 11 12 11 10 11 14 17 16 15 13 12 11 11 10 11 12 12 10 10 14 12 14 13 13 16 17 19 19 21 21 20 20 19 16 15 13 13 13 10 11 12 12 10 8 6
10 8 13 11 12 12 10 10 10 11 15 17 17 17 16 13 13 13 13 12 11 11 13 14 14 14 13 14 14 15 17 18 19 18 18 18 17 15 16 13 12 11 11 11 13 13 13 12 10
5 11 12 9 9 11 12 11 10 12 16 18 18 18 16 15 15 15 14 11 12 13 13 14 14 13 12 13 13 14 14 16 15 16 16 16 16 16 16 14 12 11 11 11 11 10 10 10 11
8 14 9 6 7 10 12 9 11 13 17 18 19 17 16 15 14 15 15 12 13 13 12 12 11 10 11 12 11 12 13 13 13 14 14 15 15 14 14 14 12 11 9 10 10 10 10 10 11
5 7 7 7 4 6 8 8 13 15 17 18 21 19 15 13 14 13 12 12 12 11 10 9 9 9 10 10 11 11 11 11 12 12 12 12 12 12 11 11 10 9 9 9 11 10 9 8 9
7 7 8 6 2 4 6 8 11 15 16 17 21 20 17 14 12 12 11 10 9 8 7 6 7 8 9 10 9 10 9 9 10 10 9 8 8 9 9 9 9 9 10 10 9 10 10 10 10
12 12 11 11 4 3 5 6 10 10 13 15 19 20 18 16 13 12 9 7 6 5 5 4 5 6 8 10 11 8 7 7 8 8 9 9 7 7 8 9 8 8 9 9 11 12 11 11 10
13 13 8 12 5 3 5 4 11 10 12 14 16 18 18 16 16 14 10 6 5 5 3 3 3 4 7 10 11 9 7 8 8 10 11 12 11 9 7 8 9 8 8 9 10 10 11 11 12
13 14 7 7 8 4 4 6 9 12 13 12 13 16 18 16 17 16 13 10 6 5 4 3 3 4 7 9 10 10 9 9 8 10 11 11 13 12 9 7 8 9 10 11 11 11 11 12 12
13 13 8 4 7 4 3 4 5 11 11 9 9 11 13 14 13 15 15 11 7 4 2 3 4 6 8 9 9 9 10 10 9 10 11 11 12 12 12 12 11 11 9 10 12 14 16 15 14
16 15 11 6 3 6 6 3 4 4 9 8 7 8 10 10 11 12 12 10 8 6 4 3 4 5 7 8 8 9 10 9 9 9 10 10 11 12 14 16 15 15 14 13 14 13 14 16 17
18 17 15 12 11 10 10 4 5 2 2 6 6 8 9 10 12 17 16 14 11 9 7 5 5 5 6 7 6 8 10 9 8 8 10 12 13 13 14 15 17 17 16 16 15 16 17 17 16
17 15 15 15 16 12 11 5 1 6 5 1 3 4 7 10 10 13 14 17 12 10 9 8 6 6 7 6 5 8 8 9 9 10 11 11 12 13 14 14 14 16 16 16 17 20 21 20 17
15 16 15 15 15 12 10 4 2 7 11 7 5 3 4 7 9 7 10 15 13 11 12 9 8 6 5 4 5 7 8 8 8 9 9 10 12 15 17 19 19 19 19 18 20 21 23 20 20
16 17 18 16 14 12 10 5 1 5 7 7 6 7 3 7 6 10 12 16 15 12 12 11 9 8 6 4 3 3 3 5 8 8 9 11 13 16 18 20 21 22 22 23 23 22 24 23 22
19 18 18 19 17 14 11 9 6 5 3 7 4 6 1 5 8 7 12 15 13 11 9 9 9 8 7 7 7 8 9 11 11 13 14 15 17 17 19 22 23 25 26 25 26 27 31 22 25
22 22 22 21 19 17 15 14 13 8 5 6 4 4 2 7 8 7 11 11 11 9 5 6 5 5 6 6 8 9 11 12 14 15 17 18 21 22 24 26 25 26 28 29 29 32 28 27 30
28 25 25 23 23 22 20 15 16 12 5 10 9 7 8 2 3 2 5 5 8 6 5 5 4 4 4 6 8 13 15 17 18 21 22 22 23 25 28 31 32 30 30 33 29 33 33 26 29
31 27 24 26 27 26 24 19 17 15 9 13 11 8 13 8 6 6 6 1 2 4 3 5 7 8 8 7 8 10 14 19 24 27 31 34 36 40 42 43 42 41 37 33 34 34 33 31 29
33 29 27 28 31 33 27 22 19 18 16 15 16 11 11 10 9 11 12 10 7 10 11 9 10 11 12 16 16 18 20 21 26 28 34 38 41 42 45 48 52 48 47 44 40 32 36 36 36
31 31 34 33 33 35 33 26 24 23 23 20 14 13 14 14 14 15 15 17 17 17 15 13 12 15 18 20 22 25 27 28 29 33 38 42 45 43 46 51 52 54 50 49 50 39 39 38 41
33 36 35 34 32 32 34 28 27 26 28 25 21 18 19 16 17 16 18 20 21 22 22 20 18 20 21 24 26 27 29 30 35 38 40 42 45 47 52 59 64 55 55 51 44 44 46 42 42
34 35 35 35 34 33 33 32 31 31 30 29 28 24 22 20 22 22 20 23 25 26 24 25 25 25 28 28 30 32 32 37 40 41 39 46 48 54 57 53 66 63 63 53 41 53 45 37 40
34 35 36 37 37 36 34 35 36 34 32 30 30 30 28 27 26 28 30 26 23 28 27 27 29 32 33 32 33 35 35 37 41 41 42 46 51 44 36 32 41 36 44 45 44 56 39 36 35
34 35 35 37 36 36 34 36 38 35 34 33 33 35 34 35 31 32 33 28 28 28 27 32 34 33 35 36 39 40 41 44 39 42 46 47 37 34 34 36 39 33 37 29 37 25 34 33 27
33 35 33 34 35 34 35 36 35 37 34 34 35 36 29 26 25 22 25 25 26 29 29 30 35 36 38 42 43 42 44 41 40 37 38 41 33 30 30 32 30 30 29 22 16 28 35 30 22
32 31 33 35 35 35 34 33 36 36 36 37 36 33 30 29 30 28 25 25 28 30 31 33 34 38 37 42 44 46 44 44 37 36 38 39 30 28 29 30 29 28 30 21 23 34 28 28 30
33 32 34 33 33 33 34 36 34 33 31 28 26 26 26 26 26 28 30 32 33 37 37 38 39 43 45 46 41 45 41 41 41 36 36 35 33 32 31 27 27 29 29 30 30 33 33 33 31
33 32 30 28 30 31 32 35 35 32 30 29 27 24 24 26 27 29 32 35 37 42 36 41 45 46 43 46 47 46 43 43 42 39 31 31 34 36 35 33 31 29 32 33 33 36 37 37 40
Wind_Direction
123 111 84 47 43 53 48 50 49 67 62 60 61 63 61 61 58 52 49 53 59 69 83 76 67 68 64 62 61 54 49 49 49 47 49 50 58 58 57 59 65 66 58 52 50 54 59 62 61
123 105 94 60 56 53 45 39 38 55 60 64 67 69 66 60 63 60 66 67 82 91 86 74 67 62 57 53 51 50 49 48 48 45 46 49 51 54 54 57 66 68 58 50 47 45 47 47 45
122 96 105 50 41 49 46 54 51 61 67 66 67 64 60 61 65 68 70 78 94 95 85 78 69 63 56 53 49 47 49 49 50 46 44 46 50 46 54 49 58 70 64 56 54 48 40 38 34
104 105 109 79 49 47 42 55 65 62 59 54 54 55 59 61 64 70 79 95 100 95 85 75 69 65 59 57 52 48 47 51 49 50 46 42 42 40 48 46 52 52 50 52 43 45 41 30 29
119 114 112 100 59 53 51 58 78 73 64 60 52 49 56 61 64 72 84 98 95 90 83 75 68 63 55 56 55 48 45 44 47 46 46 40 39 36 39 42 41 39 35 32 25 31 33 19 15
166 142 128 158 106 72 59 59 81 74 69 59 55 50 53 58 69 72 81 90 92 85 81 73 66 56 50 48 52 49 47 39 44 44 38 39 34 31 37 39 37 30 23 19 15 13 20 10 7
190 184 163 192 184 85 46 61 69 76 75 54 50 49 49 49 59 74 73 73 80 83 82 72 62 51 35 32 35 44 44 41 35 34 32 30 25 18 15 21 19 16 7 0 5 1 1 0 1
196 198 187 211 215 86 22 52 71 74 76 59 51 51 46 44 46 57 63 67 65 72 78 79 76 52 24 16 20 29 31 28 28 24 17 5 0 3 352 354 5 356 354 345 342 345 348 344 347
197 209 224 197 212 56 30 42 79 77 72 55 55 55 51 41 43 45 44 47 49 46 41 63 58 36 9 10 10 8 13 6 16 20 19 6 358 347 337 334 338 345 342 328 322 319 322 331 325
197 218 208 215 184 91 60 46 75 73 68 64 57 53 55 50 45 45 38 26 24 35 40 41 33 8 3 3 3 358 4 4 13 21 19 15 13 13 0 340 322 324 324 319 314 308 303 308 310
199 216 199 155 178 182 110 14 74 86 72 63 63 53 50 54 48 47 41 33 23 17 26 37 18 8 10 2 358 0 4 5 7 14 23 19 16 16 18 19 15 0 348 323 312 309 310 307 297
200 205 222 223 214 180 94 86 53 77 96 70 61 50 47 44 42 39 45 42 27 8 352 1 13 9 6 353 355 3 9 11 8 12 21 6 358 355 351 350 350 347 341 338 329 318 306 297 294
209 218 223 242 248 236 249 25 332 296 126 88 60 68 57 49 47 42 33 29 24 15 354 341 356 344 340 339 353 2 358 9 16 13 14 5 357 358 0 356 351 348 344 337 332 325 314 298 289
217 223 228 240 244 242 242 268 322 245 233 124 68 37 49 48 44 62 46 32 23 28 16 349 346 333 326 334 352 356 13 27 31 33 30 18 4 359 358 357 350 346 342 337 334 330 323 309 299
232 224 230 238 240 237 226 226 23 238 223 231 272 293 335 24 36 28 7 11 21 27 29 7 346 333 333 3 30 49 48 41 30 17 6 357 347 340 340 341 340 336 331 325 323 326 325 309 304
236 239 238 245 243 249 250 262 81 258 273 270 257 251 312 351 359 6 2 14 21 17 25 25 14 357 349 358 31 24 4 348 348 348 342 336 334 337 333 331 330 326 322 321 320 319 316 314 304
238 241 241 247 247 247 254 262 251 228 239 277 247 240 93 34 33 10 4 17 18 13 26 21 16 22 16 7 0 351 352 353 347 339 334 329 327 326 325 323 319 322 316 314 308 308 315 296 300
238 239 239 245 251 251 250 259 266 281 277 257 230 200 203 41 18 19 23 15 2 0 24 44 13 354 2 6 0 350 345 340 332 325 320 317 315 314 313 315 318 318 324 316 305 307 301 301 296
232 233 237 242 246 249 252 246 257 270 254 218 220 188 190 114 34 50 37 40 18 17 358 354 348 336 353 351 342 334 329 323 320 318 314 311 309 307 308 311 313 311 320 322 311 311 297 294 295
228 229 233 241 245 245 245 247 249 257 255 233 238 220 219 213 193 197 185 178 310 321 315 307 309 316 307 308 308 301 310 310 312 311 313 314 314 316 317 318 314 315 313 314 314 306 297 303 285
232 230 230 233 240 244 244 246 250 254 257 241 245 253 229 229 232 233 228 212 219 258 269 292 295 287 287 297 301 299 296 298 300 302 312 313 311 311 312 313 314 310 313 307 312 300 292 296 307
233 234 232 232 234 237 245 248 253 256 253 250 243 252 236 240 244 251 251 251 246 245 260 273 277 279 285 291 298 301 305 305 306 306 311 314 310 307 308 309 305 305 301 301 304 297 295 289 301
227 233 235 237 241 245 247 248 252 249 250 246 254 256 244 251 262 278 289 284 274 269 271 266 276 285 293 298 296 302 314 316 312 310 312 312 312 309 305 305 302 298 291 292 294 290 293 277 289
228 231 237 239 240 242 249 250 252 253 250 249 251 256 261 257 263 270 278 280 266 270 274 279 280 287 296 290 296 300 300 305 311 309 309 311 309 306 302 311 305 296 289 287 283 296 284 269 271
229 231 233 237 239 243 245 250 254 251 254 251 251 256 258 258 263 267 274 278 279 266 265 273 278 283 290 291 289 296 302 309 308 301 304 306 308 306 310 319 327 322 296 292 280 291 268 279 267
230 231 233 238 242 246 248 250 255 260 259 260 260 262 270 273 277 271 271 273 271 279 273 267 274 278 282 287 291 294 295 301 306 304 302 304 306 309 308 312 316 323 331 292 295 269 283 276 266
228 232 231 233 240 244 247 252 259 261 262 266 268 274 277 272 276 281 277 269 270 266 269 267 271 279 283 287 290 291 296 302 302 303 306 307 313 312 314 308 322 330 325 296 251 263 271 284 280
226 227 229 233 237 244 249 254 259 263 267 268 272 274 276 278 277 278 279 283 282 276 273 270 271 274 286 291 292 292 295 301 303 299 303 310 310 308 306 316 322 321 317 323 295 305 302 297 290
231 228 230 236 242 246 253 256 260 266 271 274 273 274 277 278 280 283 284 282 283 282 279 281 284 288 293 295 296 302 303 302 304 305 304 305 307 311 314 314 309 311 307 301 296 295 286 282 293
227 231 237 241 247 252 257 262 262 263 264 263 266 265 266 268 272 277 279 281 280 275 277 284 284 286 290 293 296 301 299 301 303 304 304 304 307 310 312 312 313 310 304 302 296 292 288 288 290
Height
5913 5913 5914 5913 5916 5912 5910 5909 5906 5905 5904 5903 5901 5902 5902 5902 5901 5903 5900 5898 5898 5899 5899 5900 5901 5901 5901 5901 5900 5899 5897 5896 5895 5894 5893 5893 5891 5890 5890 5889 5889 5888 5888 5887 5886 5885 5884 5884 5883
5914 5916 5916 5916 5915 5912 5911 5909 5906 5906 5906 5905 5904 5903 5903 5903 5901 5900 5899 5899 5899 5901 5901 5901 5902 5901 5901 5900 5899 5898 5897 5897 5896 5895 5894 5893 5892 5891 5892 5891 5890 5889 5888 5888 5888 5887 5885 5884 5883
5915 5917 5918 5917 5915 5914 5913 5911 5909 5908 5907 5907 5906 5904 5903 5903 5901 5900 5899 5900 5901 5902 5902 5902 5903 5902 5902 5901 5900 5900 5899 5898 5896 5895 5895 5894 5893 5892 5893 5893 5891 5890 5889 5889 5888 5888 5886 5885 5884
5915 5917 5919 5919 5917 5915 5914 5912 5910 5909 5906 5906 5906 5905 5904 5904 5902 5900 5901 5902 5903 5904 5904 5905 5905 5904 5904 5903 5902 5901 5900 5898 5897 5897 5896 5895 5894 5894 5894 5894 5892 5891 5891 5890 5889 5888 5887 5885 5884
5916 5917 5920 5920 5919 5916 5914 5914 5911 5910 5909 5909 5908 5906 5905 5904 5903 5902 5903 5905 5905 5905 5906 5907 5907 5906 5905 5904 5903 5902 5900 5900 5899 5897 5897 5896 5895 5896 5895 5895 5894 5893 5892 5891 5891 5890 5889 5887 5886
5916 5918 5920 5920 5919 5917 5916 5915 5913 5912 5910 5912 5910 5908 5907 5906 5904 5905 5906 5906 5906 5906 5908 5908 5908 5908 5906 5905 5903 5902 5901 5900 5899 5898 5898 5897 5896 5896 5895 5895 5895 5894 5892 5892 5891 5890 5890 5889 5887
5915 5918 5920 5919 5919 5918 5918 5917 5915 5913 5911 5913 5912 5910 5910 5908 5907 5906 5907 5907 5907 5908 5908 5909 5909 5909 5907 5905 5904 5903 5902 5901 5900 5899 5898 5897 5896 5896 5896 5896 5895 5895 5894 5892 5891 5890 5889 5888 5887
5916 5917 5918 5918 5918 5919 5919 5919 5917 5915 5914 5913 5913 5911 5911 5909 5908 5907 5909 5909 5909 5909 5909 5909 5909 5909 5908 5906 5905 5905 5904 5902 5901 5900 5899 5897 5897 5896 5895 5895 5895 5894 5894 5892 5891 5889 5889 5888 5887
5914 5915 5916 5918 5920 5921 5921 5921 5917 5917 5917 5917 5916 5914 5912 5912 5911 5909 5910 5910 5910 5910 5910 5910 5910 5909 5909 5907 5906 5906 5905 5903 5902 5901 5899 5898 5897 5895 5894 5894 5894 5893 5893 5891 5890 5889 5887 5887 5887
5913 5913 5915 5918 5920 5921 5922 5921 5919 5918 5917 5917 5917 5916 5915 5913 5913 5912 5912 5912 5912 5911 5911 5910 5910 5910 5909 5907 5906 5906 5905 5904 5903 5901 5900 5899 5897 5896 5894 5893 5892 5892 5891 5890 5888 5887 5886 5886 5885
5912 5912 5914 5917 5920 5922 5923 5922 5920 5918 5918 5919 5918 5917 5917 5915 5914 5913 5913 5913 5913 5912 5911 5910 5910 5909 5908 5907 5906 5905 5905 5904 5903 5901 5899 5898 5897 5897 5896 5894 5893 5891 5890 5888 5887 5886 5884 5884 5883
5909 5911 5913 5916 5919 5922 5924 5922 5922 5921 5919 5919 5918 5918 5918 5917 5915 5914 5913 5913 5912 5912 5911 5910 5909 5908 5907 5907 5906 5905 5905 5904 5903 5901 5899 5898 5898 5897 5896 5895 5894 5892 5890 5889 5887 5884 5882 5880 5879
5908 5910 5912 5914 5916 5919 5922 5923 5922 5923 5921 5918 5918 5918 5918 5917 5916 5915 5914 5913 5912 5911 5910 5910 5909 5908 5907 5906 5906 5905 5904 5903 5902 5901 5899 5898 5897 5896 5895 5893 5891 5890 5888 5886 5885 5883 5880 5878 5877
5905 5908 5911 5912 5913 5916 5920 5921 5922 5922 5921 5919 5917 5916 5917 5917 5915 5914 5913 5912 5911 5910 5909 5908 5907 5907 5907 5906 5906 5904 5903 5902 5901 5900 5899 5898 5896 5895 5893 5892 5890 5888 5886 5885 5883 5881 5879 5876 5874
5903 5906 5908 5910 5911 5914 5917 5920 5919 5919 5920 5919 5917 5916 5915 5916 5915 5914 5912 5911 5909 5908 5908 5907 5907 5907 5907 5906 5905 5903 5902 5901 5900 5899 5897 5896 5895 5894 5892 5891 5888 5886 5885 5883 5880 5878 5875 5873 5871
5901 5903 5905 5906 5908 5910 5913 5916 5918 5918 5918 5918 5917 5916 5914 5914 5914 5913 5912 5910 5909 5908 5908 5907 5908 5907 5906 5905 5904 5902 5901 5899 5898 5897 5896 5894 5892 5891 5889 5887 5885 5882 5880 5878 5876 5874 5872 5870 5867
5898 5900 5901 5903 5905 5907 5909 5912 5915 5916 5916 5917 5916 5915 5913 5913 5912 5911 5911 5910 5909 5909 5907 5906 5906 5906 5905 5904 5903 5902 5901 5899 5898 5895 5894 5892 5890 5887 5885 5883 5880 5877 5874 5872 5870 5869 5867 5865 5863
5894 5896 5898 5900 5902 5904 5905 5908 5910 5912 5913 5915 5915 5915 5914 5913 5912 5911 5910 5909 5908 5907 5906 5905 5904 5903 5903 5902 5902 5900 5899 5897 5894 5892 5890 5888 5887 5884 5881 5878 5876 5874 5870 5867 5865 5864 5860 5859 5857
5888 5892 5894 5896 5898 5900 5902 5905 5906 5907 5910 5912 5912 5913 5912 5912 5911 5910 5909 5908 5907 5906 5905 5904 5902 5901 5901 5900 5899 5898 5896 5894 5892 5889 5886 5883 5881 5879 5877 5875 5872 5870 5868 5864 5862 5859 5855 5852 5849
5883 5887 5891 5892 5893 5895 5898 5901 5903 5904 5906 5908 5908 5910 5909 5907 5906 5907 5907 5906 5905 5904 5904 5903 5901 5900 5898 5896 5895 5893 5892 5890 5888 5885 5883 5881 5878 5876 5875 5872 5869 5867 5865 5860 5856 5851 5848 5844 5840
5878 5883 5887 5887 5887 5888 5893 5897 5900 5900 5901 5904 5906 5907 5908 5907 5905 5903 5903 5903 5903 5901 5900 5899 5899 5898 5895 5894 5893 5891 5889 5887 5885 5883 5881 5878 5875 5872 5869 5866 5862 5860 5858 5856 5853 5847 5842 5837 5833
5875 5879 5879 5880 5881 5884 5888 5893 5894 5895 5897 5898 5901 5903 5905 5904 5904 5902 5901 5900 5899 5898 5897 5896 5896 5894 5893 5891 5890 5888 5887 5885 5883 5880 5878 5875 5870 5868 5864 5860 5855 5851 5848 5844 5843 5842 5837 5832 5828
5869 5870 5873 5877 5880 5882 5883 5888 5888 5891 5892 5894 5896 5898 5900 5900 5901 5901 5900 5899 5897 5896 5895 5894 5893 5891 5890 5888 5886 5885 5882 5880 5879 5877 5873 5869 5865 5861 5856 5850 5843 5840 5835 5831 5832 5829 5827 5824 5820
5861 5865 5870 5872 5874 5877 5878 5882 5882 5884 5886 5888 5891 5894 5895 5896 5896 5896 5896 5895 5894 5892 5891 5890 5888 5886 5885 5883 5881 5879 5877 5874 5872 5869 5867 5862 5857 5852 5847 5841 5831 5823 5818 5816 5814 5815 5813 5810 5810
5855 5859 5864 5866 5867 5870 5873 5874 5875 5878 5882 5884 5886 5888 5889 5890 5890 5890 5889 5888 5888 5887 5887 5885 5883 5880 5878 5876 5873 5872 5870 5868 5864 5861 5858 5853 5848 5842 5835 5828 5822 5810 5808 5804 5803 5802 5799 5789 5794
5850 5854 5858 5860 5863 5866 5868 5867 5868 5873 5876 5878 5880 5881 5883 5883 5883 5883 5882 5880 5881 5880 5880 5878 5875 5874 5872 5869 5867 5864 5862 5860 5856 5851 5848 5844 5837 5832 5827 5820 5814 5805 5796 5792 5792 5791 5789 5781 5788
5844 5847 5853 5855 5857 5860 5862 5863 5865 5867 5869 5872 5873 5875 5874 5875 5876 5876 5874 5874 5873 5872 5871 5870 5868 5866 5864 5862 5859 5856 5853 5850 5847 5841 5837 5834 5828 5823 5818 5813 5806 5797 5792 5789 5787 5785 5784 5785 5780
5838 5844 5846 5849 5853 5855 5856 5858 5859 5862 5864 5865 5865 5867 5867 5868 5867 5868 5867 5867 5866 5864 5862 5861 5860 5858 5856 5854 5851 5848 5843 5839 5835 5832 5829 5824 5820 5816 5812 5805 5798 5795 5789 5784 5782 5781 5779 5776 5773
5833 5838 5841 5845 5849 5850 5852 5853 5855 5857 5858 5859 5860 5861 5862 5861 5861 5861 5860 5859 5857 5856 5855 5853 5851 5849 5846 5842 5839 5834 5829 5825 5822 5820 5817 5814 5811 5807 5802 5798 5794 5789 5784 5780 5777 5773 5770 5768 5764
5828 5833 5838 5841 5844 5846 5848 5847 5849 5852 5853 5854 5855 5855 5855 5854 5854 5854 5853 5851 5850 5847 5846 5844 5842 5840 5837 5833 5828 5823 5818 5815 5812 5807 5805 5804 5801 5796 5792 5788 5784 5780 5776 5772 5769 5764 5761 5757 5755